Bangkok (Don Mueang), Thailand

9:54 PM ICT on August 29, 2016 (GMT +0700)
Bangkok International

Weather History for VTBD - January, 2013

Change the Weather History Date:

Wednesday, January 2, 2013

  Actual Average Record
Temperature  
Mean Temperature 83 °F -  
Max Temperature 94 °F 88 °F 94 °F (2013)
Min Temperature 72 °F 72 °F 64 °F (2005)
Cooling Degree Days 18    
Growing Degree Days 33 (Base 50)    
Moisture  
Dew Point 67 °F    
Average Humidity 62    
Maximum Humidity 83    
Minimum Humidity 33    
Precipitation  
Precipitation 0.00 in 0.01 in - ()
Sea Level Pressure  
Sea Level Pressure 29.88 in    
Wind  
Wind Speed 4 mph ()    
Max Wind Speed 10 mph    
Max Gust Speed -    
Visibility 5.3 miles    
Events      
Averages and records for this station are not official NWS values.
T = Trace of Precipitation, MM = Missing Value Source: Averaged Metar Reports

Daily Weather History Graph

Daily Weather History Graph

Search for Another Location

Airport or City:

Trip Planner

Search our weather history database for the weather conditions in past years. The results will help you decide how hot, cold, wet, or windy it might be!

Date:

Astronomy

Jan. 02, 2013 Rise Set
Actual Time 6:41 AM ICT 6:01 PM ICT
Civil Twilight 6:18 AM ICT 6:24 PM ICT
Nautical Twilight 5:52 AM ICT 6:51 PM ICT
Astronomical Twilight 5:25 AM ICT 7:17 PM ICT
Moon 10:09 PM ICT (1/2) 9:53 AM ICT (1/2)
Length of Visible Light 12h 05m
Length of Day
11h 19m
Waning Gibbous, 79% of the Moon is Illuminated
Jan 2
Waning Gibbous
Jan 5
Last Quarter
Jan 12
New
Jan 19
First Quarter
Jan 27
Full

Hourly Weather History & Observations

Time (ICT) Temp. Heat Index Dew Point Humidity Pressure Visibility Wind Dir Wind Speed Gust Speed Precip Events Conditions
12:00 AM 77.0 °F - 68.0 °F 74% 29.89 in 6.2 mi North 3.5 mph - N/A   Scattered Clouds
12:30 AM 77.0 °F - 68.0 °F 74% 29.89 in 6.2 mi North 3.5 mph - N/A   Scattered Clouds
1:00 AM 76 °F - 67 °F 65% 29.88 in 6 mi North 3.5 mph - -   Scattered Clouds
1:00 AM 77.0 °F - 68.0 °F 74% 29.89 in 6.2 mi North 3.5 mph - N/A   Scattered Clouds
1:30 AM 75.2 °F - 68.0 °F 78% 29.86 in 6.2 mi North 3.5 mph - N/A   Scattered Clouds
2:00 AM 75.2 °F - 68.0 °F 78% 29.86 in 6.2 mi North 3.5 mph - N/A   Scattered Clouds
2:30 AM 75.2 °F - 68.0 °F 78% 29.86 in 6.2 mi North 3.5 mph - N/A   Scattered Clouds
3:00 AM 75.2 °F - 68.0 °F 78% 29.83 in 6.2 mi North 3.5 mph - N/A   Scattered Clouds
3:30 AM 75.2 °F - 66.2 °F 73% 29.83 in 6.2 mi NNE 3.5 mph - N/A   Mostly Cloudy
4:00 AM 75.2 °F - 68.0 °F 78% 29.83 in 5.0 mi NNE 3.5 mph - N/A   Mostly Cloudy
4:30 AM 73.4 °F - 68.0 °F 83% 29.83 in 5.0 mi North 3.5 mph - N/A   Mostly Cloudy
5:00 AM 73.4 °F - 68.0 °F 83% 29.86 in 4.3 mi North 4.6 mph - N/A   Mostly Cloudy
5:30 AM 73.4 °F - 68.0 °F 83% 29.86 in 4.3 mi NNW 3.5 mph - N/A   Mostly Cloudy
6:00 AM 73.4 °F - 68.0 °F 83% 29.86 in 3.7 mi NW 3.5 mph - N/A   Mostly Cloudy
6:30 AM 73.4 °F - 68.0 °F 83% 29.86 in 3.1 mi North 4.6 mph - N/A   Scattered Clouds
7:00 AM 73 °F - 67 °F 77% 29.89 in 3 mi North 4.6 mph - -   Mist
7:00 AM 73.4 °F - 68.0 °F 83% 29.89 in 3.1 mi North 4.6 mph - N/A   Scattered Clouds
7:30 AM 73.4 °F - 68.0 °F 83% 29.89 in 3.7 mi North 4.6 mph - N/A   Scattered Clouds
8:00 AM 73.4 °F - 66.2 °F 78% 29.92 in 4.3 mi North 3.5 mph - N/A   Scattered Clouds
8:30 AM 75.2 °F - 66.2 °F 73% 29.92 in 4.3 mi NNE 3.5 mph - N/A   Unknown
9:00 AM 77.0 °F - 66.2 °F 69% 29.92 in 5.0 mi NE 2.3 mph - N/A   Unknown
9:30 AM 78.8 °F - 66.2 °F 65% 29.95 in 5.0 mi North 3.5 mph - N/A   Unknown
10:00 AM 80.6 °F 82.7 °F 66.2 °F 61% 29.95 in 5.6 mi NNE 2.3 mph - N/A   Unknown
10:30 AM 84.2 °F 86.6 °F 66.2 °F 55% 29.95 in 5.6 mi NE 4.6 mph - N/A   Unknown
11:00 AM 87.8 °F 89.4 °F 64.4 °F 46% 29.95 in 5.6 mi ENE 8.1 mph - N/A   Unknown
11:30 AM 89.6 °F 91.1 °F 64.4 °F 43% 29.92 in - ENE 8.1 mph - N/A   Clear
12:00 PM 89.6 °F 92.2 °F 66.2 °F 46% 29.92 in - East 9.2 mph - N/A   Clear
12:30 PM 91.4 °F 94.0 °F 66.2 °F 43% 29.89 in - East 10.4 mph - N/A   Clear
1:00 PM 91 °F - 65 °F 33% 29.89 in 7 mi ENE 10.4 mph - -   Clear
1:00 PM 91.4 °F 94.0 °F 66.2 °F 43% 29.89 in - ENE 5.8 mph - N/A   Clear
1:30 PM 93.2 °F 96.2 °F 66.2 °F 41% 29.86 in - East 6.9 mph - N/A   Clear
2:00 PM 93.2 °F 94.9 °F 64.4 °F 38% 29.86 in - East 9.2 mph - N/A   Clear
2:30 PM 93.2 °F 96.2 °F 66.2 °F 41% 29.86 in - NE 8.1 mph - N/A   Clear
3:00 PM 95.0 °F 98.5 °F 66.2 °F 39% 29.86 in 6.2 mi NE 5.8 mph - N/A   Partly Cloudy
3:30 PM 95.0 °F 98.5 °F 66.2 °F 39% 29.83 in 6.2 mi ENE 8.1 mph - N/A   Partly Cloudy
4:00 PM 93.2 °F 94.9 °F 64.4 °F 38% 29.83 in 6.2 mi East 6.9 mph - N/A   Partly Cloudy
4:30 PM 93.2 °F 94.9 °F 64.4 °F 38% 29.83 in 6.2 mi East 5.8 mph - N/A   Partly Cloudy
5:00 PM 91.4 °F 95.4 °F 68.0 °F 46% 29.86 in 6.2 mi East 4.6 mph - N/A   Partly Cloudy
5:30 PM 91.4 °F 95.4 °F 68.0 °F 46% 29.86 in 5.6 mi East 4.6 mph - N/A   Partly Cloudy
6:00 PM 89.6 °F 96.2 °F 71.6 °F 55% 29.86 in 5.0 mi ENE 2.3 mph - N/A   Partly Cloudy
6:30 PM 87.8 °F 93.8 °F 71.6 °F 58% 29.86 in 4.3 mi NNE 3.5 mph - N/A   Partly Cloudy
7:00 PM 87 °F - 71 °F 49% 29.89 in 4 mi North 2.3 mph - -   Haze
7:00 PM 86.0 °F 91.8 °F 71.6 °F 62% 29.89 in 4.3 mi North 2.3 mph - N/A   Unknown
7:30 PM 86.0 °F 91.8 °F 71.6 °F 62% 29.89 in 4.3 mi North 3.5 mph - N/A   Unknown
8:00 PM 84.2 °F 89.6 °F 71.6 °F 66% 29.89 in 5.0 mi NNW 4.6 mph - N/A   Unknown
8:30 PM 80.6 °F 82.7 °F 66.2 °F 61% 29.89 in 6.2 mi NNW 3.5 mph - N/A   Scattered Clouds
9:00 PM 80.6 °F 82.7 °F 66.2 °F 61% 29.92 in 6.2 mi NNW 3.5 mph - N/A   Scattered Clouds
9:30 PM 80.6 °F 82.7 °F 66.2 °F 61% 29.92 in 6.2 mi East 2.3 mph - N/A   Scattered Clouds
10:00 PM 78.8 °F - 68.0 °F 69% 29.92 in 6.2 mi ENE 2.3 mph - N/A   Scattered Clouds
10:30 PM 78.8 °F - 66.2 °F 65% 29.92 in 6.2 mi ENE 3.5 mph - N/A   Scattered Clouds
11:00 PM 77.0 °F - 66.2 °F 69% 29.89 in 6.2 mi ENE 3.5 mph - N/A   Scattered Clouds
11:30 PM 78.8 °F - 66.2 °F 65% 29.89 in 5.6 mi ENE 2.3 mph - N/A   Scattered Clouds